Weather History for KAHN - March, 2014

Change the Weather History Date:

Monday, March 3, 2014

  Actual Average Record
Temperature  
Mean Temperature 50 °F 51 °F  
Max Temperature 63 °F 62 °F 82 °F (1992)
Min Temperature 37 °F 40 °F 11 °F (1980)
Degree Days  
Heating Degree Days 15 14  
Month to date heating degree days 34 43  
Since 1 July heating degree days 2496 2298  
Cooling Degree Days 0 0  
Month to date cooling degree days 0 0  
Year to date cooling degree days 1 1  
Moisture  
Dew Point 45 °F    
Average Humidity 77    
Maximum Humidity 96    
Minimum Humidity 57    
Precipitation  
Precipitation 0.11 in 0.15 in 2.07 in (1966)
Month to date precipitation 0.11 0.46  
Year to date precipitation 8.75 8.99  
Snow  
Snow 0.00 in 0.10 in 0.00 in (2002)
Month to date snowfall 0.0 0.1  
Since 1 July snowfall 2.8 2.2  
Snow Depth 0.00 in    
Sea Level Pressure  
Sea Level Pressure 29.92 in    
Wind  
Wind Speed 9 mph (WSW)    
Max Wind Speed 23 mph    
Max Gust Speed 31 mph    
Visibility 8 miles    
Events Rain    
T = Trace of Precipitation, MM = Missing Value Source: NWS Daily Summary

Daily Weather History Graph

Daily Weather History Graph

Search for Another Location

Airport or City:

Trip Planner

Search our weather history database for the weather conditions in past years. The results will help you decide how hot, cold, wet, or windy it might be!

Date:

Astronomy

Mar. 03, 2014 Rise Set
Actual Time 6:59 AM EST 6:31 PM EST
Civil Twilight 6:34 AM EST 6:56 PM EST
Nautical Twilight 6:05 AM EST 7:25 PM EST
Astronomical Twilight 5:36 AM EST 7:54 PM EST
Moon 8:15 AM EST (3/3) 9:23 PM EST (3/3)
Length of Visible Light 12h 22m
Length of Day
11h 32m
Waxing Crescent, 8% of the Moon is Illuminated
Mar 3
Waxing Crescent
Mar 8
First Quarter
Mar 16
Full
Mar 23
Last Quarter
Mar 30
New

Hourly Weather History & Observations

Time (EST) Temp. Windchill Dew Point Humidity Pressure Visibility Wind Dir Wind Speed Gust Speed Precip Events Conditions
12:51 AM 57.0 °F - 44.1 °F 62% 29.91 in 9.0 mi South 4.6 mph - N/A   Clear
1:51 AM 57.0 °F - 43.0 °F 59% 29.92 in 9.0 mi SW 3.5 mph - N/A   Clear
2:51 AM 55.9 °F - 43.0 °F 62% 29.89 in 9.0 mi Variable 5.8 mph - N/A   Clear
3:51 AM 55.9 °F - 44.1 °F 64% 29.86 in 9.0 mi SW 8.1 mph - N/A   Clear
4:51 AM 55.9 °F - 44.1 °F 64% 29.83 in 10.0 mi SSW 8.1 mph - N/A   Clear
5:51 AM 55.9 °F - 44.1 °F 64% 29.79 in 10.0 mi SSW 6.9 mph - N/A   Clear
6:51 AM 55.9 °F - 46.0 °F 69% 29.85 in 10.0 mi WSW 8.1 mph - 0.00 in Rain Light Rain
6:59 AM 55.4 °F - 46.4 °F 72% 29.86 in 10.0 mi WSW 8.1 mph - 0.00 in Rain Light Rain
7:30 AM 53.6 °F - 48.2 °F 82% 29.87 in 2.5 mi SW 4.6 mph - 0.02 in Rain Light Rain
7:38 AM 53.6 °F - 48.2 °F 82% 29.88 in 4.0 mi SW 5.8 mph - 0.02 in Rain Light Rain
7:51 AM 52.0 °F - 50.0 °F 93% 29.88 in 4.0 mi SW 4.6 mph - 0.03 in Rain Light Rain
8:01 AM 51.8 °F - 50.0 °F 94% 29.88 in 1.8 mi SW 4.6 mph - 0.01 in Rain Rain
8:18 AM 53.6 °F - 51.8 °F 94% 29.88 in 2.5 mi SSW 5.8 mph - 0.06 in Rain Light Rain
8:33 AM 53.6 °F - 51.8 °F 94% 29.85 in 4.0 mi South 3.5 mph - 0.07 in Rain Light Rain
8:51 AM 53.1 °F - 51.1 °F 93% 29.83 in 2.5 mi South 4.6 mph - 0.08 in Rain Light Rain
8:58 AM 53.6 °F - 51.8 °F 94% 29.83 in 3.0 mi South 4.6 mph - 0.00 in Rain Light Rain
9:19 AM 53.6 °F - 51.8 °F 94% 29.86 in 4.0 mi WSW 5.8 mph - 0.00 in   Overcast
9:51 AM 55.0 °F - 53.1 °F 93% 29.86 in 4.0 mi Variable 3.5 mph - 0.00 in   Overcast
10:14 AM 55.4 °F - 53.6 °F 94% 29.86 in 5.0 mi SW 8.1 mph - N/A   Overcast
10:51 AM 57.0 °F - 55.0 °F 93% 29.86 in 6.0 mi SSW 8.1 mph - N/A   Overcast
11:51 AM 60.1 °F - 57.0 °F 90% 29.84 in 7.0 mi SW 8.1 mph - N/A   Overcast
12:08 PM 60.8 °F - 57.2 °F 88% 29.85 in 8.0 mi SW 5.8 mph 17.3 mph N/A   Overcast
12:51 PM 62.1 °F - 57.0 °F 84% 29.83 in 9.0 mi WSW 10.4 mph - N/A   Overcast
1:44 PM 60.8 °F - 53.6 °F 77% 29.84 in 10.0 mi West 9.2 mph 24.2 mph N/A   Overcast
1:51 PM 61.0 °F - 53.1 °F 75% 29.84 in 10.0 mi West 10.4 mph 19.6 mph N/A   Overcast
2:39 PM 59.0 °F - 48.2 °F 67% 29.84 in 10.0 mi Variable 6.9 mph - N/A   Overcast
2:51 PM 62.1 °F - 50.0 °F 65% 29.84 in 10.0 mi West 10.4 mph 16.1 mph N/A   Mostly Cloudy
3:12 PM 59.0 °F - 48.2 °F 67% 29.87 in 10.0 mi WNW 17.3 mph 23.0 mph N/A   Mostly Cloudy
3:51 PM 54.0 °F - 42.1 °F 64% 29.90 in 10.0 mi West 17.3 mph 27.6 mph N/A   Scattered Clouds
4:51 PM 53.1 °F - 39.0 °F 59% 29.92 in 10.0 mi WNW 11.5 mph 21.9 mph N/A   Clear
5:51 PM 48.9 °F - 37.9 °F 66% 29.97 in 10.0 mi NW 12.7 mph 19.6 mph N/A   Mostly Cloudy
6:11 PM 46.4 °F 42.4 °F 37.4 °F 71% 29.98 in 10.0 mi NW 8.1 mph - N/A   Scattered Clouds
6:38 PM 46.4 °F 42.4 °F 37.4 °F 71% 30.01 in 10.0 mi West 8.1 mph - N/A   Mostly Cloudy
6:51 PM 44.1 °F 40.1 °F 36.0 °F 73% 30.02 in 10.0 mi WNW 6.9 mph - N/A   Overcast
7:51 PM 43.0 °F 38.8 °F 35.1 °F 74% 30.08 in 10.0 mi North 6.9 mph - N/A   Overcast
8:51 PM 41.0 °F 32.5 °F 32.0 °F 70% 30.10 in 10.0 mi ENE 17.3 mph 28.8 mph N/A   Overcast
9:51 PM 39.0 °F 30.3 °F 33.1 °F 79% 30.13 in 10.0 mi ENE 16.1 mph 21.9 mph N/A   Overcast
9:59 PM 39.2 °F 32.0 °F 32.0 °F 75% 30.12 in 10.0 mi ENE 11.5 mph 21.9 mph N/A   Overcast
10:48 PM 37.4 °F 30.3 °F 30.2 °F 75% 30.15 in 10.0 mi ENE 10.4 mph - N/A   Overcast
10:51 PM 37.9 °F 30.9 °F 30.9 °F 76% 30.16 in 10.0 mi ENE 10.4 mph - N/A   Overcast
11:08 PM 37.4 °F 30.3 °F 30.2 °F 75% 30.15 in 10.0 mi ENE 10.4 mph - N/A   Overcast
11:51 PM 37.0 °F 29.3 °F 30.0 °F 76% 30.16 in 10.0 mi East 11.5 mph - N/A   Overcast